Regional Weather Roundup
Issued by NWS

Home | Current Version | Previous Version | Graphics & Text | Print | Product List | Glossary On
Versions: 1 2 3 4 5 6 7 8 9 10 11 12 13 14 15 16 17 18 19 20 21 22 23 24 25 26 27 28 29 30 31 32 33 34 35 36 37 38 39 40 41 42 43 44 45 46 47 48 49 50
000
ASUS43 KLOT 240306
RWRIL

ILLINOIS REGIONAL WEATHER ROUNDUP
NATIONAL WEATHER SERVICE CHICAGO/ROMEOVILLE IL
900 PM CST SUN NOV 23 2014

NOTE: "FAIR" INDICATES FEW OR NO CLOUDS BELOW 12,000 FEET WITH NO
SIGNIFICANT WEATHER AND/OR OBSTRUCTIONS TO VISIBILITY.

* THESE STATIONS ARE NOT UNDER NWS QUALITY CONTROL. THEY ALSO MAY NOT
  REPORT WEATHER SUCH AS PRECIPITATION OR FOG.

ILZ001-002-007-009-015-016-024-240400-
NORTHWEST ILLINOIS

CITY           SKY/WX    TMP DP  RH WIND       PRES   REMARKS
MOLINE         FOG       49  48  97 E3        29.20F VSB 3/4
STERLING*      CLOUDY    48  46  93 SE3       29.21F
SAVANNA*       DRIZZLE   49  47  94 CALM      29.20F
$$

ILZ003-004-008-010-011-017-018-240400-
NORTH CENTRAL ILLINOIS

CITY           SKY/WX    TMP DP  RH WIND       PRES   REMARKS
ROCKFORD       LGT RAIN  49  47  93 E6        29.23F FOG
FREEPORT*      DRZL/FOG  46  46  99 E3        29.23F VSB 1/2
ROCHELLE*      LGT RAIN  47  47  99 SE5       29.22F
DE KALB*       CLOUDY    47  47  98 SE5       29.22F
PERU*          DRIZZLE   49  48  97 S6        29.21F
$$

ILZ005-006-012>014-019>023-240400-
NORTHEAST ILLINOIS

CITY           SKY/WX    TMP DP  RH WIND       PRES   REMARKS
CHICAGO-OHARE  RAIN      50  49  96 SE5       29.21F FOG
CHICAGO-MIDWAY RAIN      53  51  93 S5        29.21F
AURORA         LGT RAIN  50  47  89 SE5       29.21F FOG
LANSING*       RAIN      51  50  97 SE8       29.22F
JOLIET*        LGT RAIN  49  49  99 SE3       29.21F
WAUKEGAN       RAIN      46  46 100 E5        29.22F FOG
DUPAGE AIRPORT RAIN      50  49  96 CALM      29.21F FOG
KANKAKEE*      RAIN      49  49  99 E3        29.21F
WHEELING       LGT RAIN  48  48 100 CALM      29.23F FOG
MORRIS*        RAIN      50  50 100 CALM      29.20F
ROMEOVILLE*    RAIN      49  49 100 S5        29.21F
NORTHERLY ISL    N/A     45  43  93 CALM        N/A
$$

LMZ740>746-240400-
SOUTHERN LAKE MICHIGAN

STATION/POSITION SKY/WX   TEMP    WIND        PRES    VSBY  WAVE
                          AIR SEA DIR/SP/G                  HT/PER
                          (F)     (DEG/KT/KT) (MB)    (MI)  (FT/S)
SOUTHERN BUOY              46 42  110/ 12/ 12  990.4F         1/ 3
WAUKEGAN HARBOR            45      CALM  /  4   N/A
HARRISON CRIB              46     130/  8/  8   N/A
BURNHAM HARBOR             45      CALM  /  3   N/A
CALUMET HARBOR             51     120/  8/ 12  988.7F
MICHIGAN CITY              51     100/ 10/ 13   N/A
$$

ILZ025>027-034>036-040-047-049-050-058-095>099-240400-
WEST-CENTRAL ILLINOIS

CITY           SKY/WX    TMP DP  RH WIND       PRES   REMARKS
QUINCY         LGT RAIN  51  50  96 SW5       29.22F VSB 1/4
GALESBURG*     DRZL/FOG  48  48  99 CALM      29.21F VSB 1/2
MACOMB*        CLOUDY    50  50 100 S3        29.23F FOG
JACKSONVILLE*  CLOUDY    52  51  95 SW6       29.23S FOG
PITTSFIELD*    CLOUDY    53  51  95 SW3       29.23F
$$

ILZ028>032-037-038-041>044-048-051>054-059>061-240400-
CENTRAL ILLINOIS

CITY           SKY/WX    TMP DP  RH WIND       PRES   REMARKS
PONTIAC        LGT RAIN  50  50 100 CALM      29.21F VSB 3/4
BLOOMINGTON    LGT RAIN  49  49 100 S7        29.21F VSB 3/4
DECATUR        LGT RAIN  51 N/A N/A SW7       29.21F
PEORIA         LGT RAIN  51  48  89 S6        29.21F FOG
LACON*         RAIN      48  47  97 CALM      29.20F
LINCOLN*       LGT RAIN  51  50  97 CALM      29.20F
SPRINGFIELD    LGT RAIN  51  50  96 W5        29.23F
TAYLORVILLE    CLOUDY    50  50 100 S8        29.22F FOG
$$

ILZ033-039-045-046-055>057-062-063-240400-
EAST-CENTRAL ILLINOIS

CITY           SKY/WX    TMP DP  RH WIND       PRES   REMARKS
CHAMPAIGN      LGT RAIN  50  50 100 SW6       29.21F VSB 1/2
DANVILLE*      RAIN      51  51  99 S5        29.17F
RANTOUL*       DRIZZLE   52  52  98 SW5       29.20F
MATTOON        LGT RAIN  52  51  97 S6        29.20F
PARIS*         RAIN      52  52 100 S6        29.21F
$$

ILZ079-100>102-240400-
SOUTHWEST ILLINOIS

CITY           SKY/WX    TMP DP  RH WIND       PRES   REMARKS
BELLEVILLE     CLOUDY    53  53 100 S8        29.25F
CAHOKIA*       CLOUDY    55  54  96 SW3       29.25F FOG
SPARTA*        CLOUDY    54  53  98 SW10G17   29.29S
$$

ILZ064>066-069>071-074>076-080>082-084>086-088>090-092>094-240400-
SOUTH-CENTRAL ILLINOIS

CITY           SKY/WX    TMP DP  RH WIND       PRES   REMARKS
CARBONDALE     CLOUDY    57  54  89 SW18G26   29.30R
CAIRO*         CLOUDY    58  56  92 SW14G22   29.37R FOG
EFFINGHAM*     CLOUDY    51  49  93 SW5       29.23F
MARION         CLOUDY    57  55  94 SW13G22   29.31R
MT. VERNON     CLOUDY    54  50  87 SW13      29.28R
CENTRALIA*     FOG       52  50  93 SW9       29.27R VSB 1
SALEM*           N/A     54  53  95 SW8       29.26R FOG
METROPOLIS*    CLOUDY    58  58 100 SW15G21   29.35R
$$

ILZ067-068-072-073-078-083-087-091-240400-
SOUTHEAST ILLINOIS

CITY           SKY/WX    TMP DP  RH WIND       PRES   REMARKS
LAWRENCEVILLE  LGT RAIN  55  54  96 SW12      29.23S FOG
FLORA*         RAIN      52  52  99 SW8       29.25R
FAIRFIELD*     CLOUDY    54  54  99 SW9       29.25S
HARRISBURG*    CLOUDY    57  57 100 SW15G21   29.31R
ROBINSON*      RAIN      53  53  99 S5        29.22F
CARMI*         CLOUDY    57  56  98 SW14G25   29.28R
$$

ABBREVIATIONS USED IN REMARKS
   TC - TEMPERATURE IN CELSIUS
  WCI - WIND CHILL INDEX
   HX - HEAT INDEX
  VSB - VISIBILITY
$$




USA.gov is the U.S. government's official web portal to all federal, state and local government web resources and services.